Weather in Fokino

Russia / Primorsky Krai     42°58′14″N   132°24′39″E
temp.,
°C
wind,
m/s
gust,
m/s
humid.,
%
clouds,
%
prec.,
mm/h
press.,
hPa
HPBL,
m
17 may, mon
mon1701:00+12nne226395 0.0 100318
04:00+12nne235694 0.0 100343
07:00+13nne2253100 0.0 100341
10:00+19nnw34395 0.0 1004727
13:00+22nw443425 0.0 10041934
16:00+22nw443181 0.0 10031965
19:00+18nw235298 0.0 100577
22:00+13nw1155100 0.0 100713
18 may, tue
tue1801:00+13ene11505 0.0 100811
04:00+12ene22460 0.0 100812
07:00+13ese1152100 0.0 100912
10:00+19s234091 0.0 1009381
13:00+21s343710 0.0 1009668
16:00+19s344894 0.0 1009497
19:00+15s3466100 0.0 1009251
22:00+10se228799 0.0 101138
19 may, wed
wed1901:00+10se22890 0.0 101129
04:00+9ese22965 0.0 101030
07:00+11se12901 0.0 101069
10:00+16s34660 0.0 1009558
13:00+18s35613 0.0 1009628
16:00+18sse34625 0.0 1009529
19:00+16sse23752 0.0 1009306
22:00+12ese22954 0.0 101133
20 may, thu
thu2001:00+11se229061 0.0 101130
04:00+11e22927 0.2 101119
07:00+13ese128019 0.0 101241
10:00+20s225698 0.0 1011326
13:00+23ssw3444100 0.0 1011528
16:00+21s3548100 0.0 1011424
19:00+17se2370100 0.0 101194
22:00+15se2276100 0.0 101229
21 may, fri
fri2101:00+14ese2273100 0.0 101134
04:00+14e2271100 0.0 100932
07:00+15ene1264100 0.0 100823
10:00+15ssw2269100 0.0 1008208
13:00+17nne0263100 0.0 1006637
16:00+15ene2779100 0.6 1004747
19:00+13n2395100 1.2 100291
22:00+13nne1290100 1.3 100225